This is the latest recevied weather packets stored in our database for station/object DELTON-WX. If no packets are shown the sender has not sent any weather packets the latest 10 day(s).
| Time | Temp. | Humidity | Pressure | Rain* | Wind** | Luminosity | Snow |
|---|---|---|---|---|---|---|---|
| 1777911351 | 20° C | 43% | 970.6 hPa | 0 mm | - | - | - |
| 1777910485 | 19.44° C | 43% | 970.6 hPa | 0 mm | - | - | - |
| 1777909551 | 18.89° C | 58% | 971 hPa | 0 mm | - | - | - |
| 1777908668 | 17.78° C | 58% | 970.9 hPa | 0 mm | - | - | - |
| 1777907752 | 17.22° C | 58% | 970.9 hPa | 0 mm | - | - | - |
| 1777906888 | 16.67° C | 58% | 970.9 hPa | 0 mm | - | - | - |
| 1777905951 | 16.11° C | 66% | 971 hPa | 0 mm | - | - | - |
| 1777905069 | 15.56° C | 66% | 971.7 hPa | 0 mm | - | - | - |
| 1777904146 | 15° C | 66% | 971.7 hPa | 0 mm | - | - | - |
| 1777903293 | 14.44° C | 65% | 971 hPa | 0 mm | - | - | - |
| 1777902350 | 13.89° C | 70% | 970.7 hPa | 0 mm | - | - | - |
| 1777901468 | 13.33° C | 70% | 970.7 hPa | 0 mm | - | - | - |
| 1777900551 | 12.78° C | 70% | 970.7 hPa | 0 mm | - | - | - |
| 1777899684 | 11.67° C | 71% | 970.7 hPa | 0 mm | - | - | - |
| 1777898750 | 11.11° C | 79% | 971.1 hPa | 0 mm | - | - | - |
| 1777897868 | 10.56° C | 79% | 971.1 hPa | 0 mm | - | - | - |
| 1777896950 | 9.44° C | 79% | 971.1 hPa | 0 mm | - | - | - |
| 1777896088 | 8.89° C | 79% | 971.1 hPa | 0 mm | - | - | - |
| 1777895150 | 8.33° C | 82% | 969.9 hPa | 0 mm | - | - | - |
| 1777894267 | 7.78° C | 87% | 970.4 hPa | 0 mm | - | - | - |
| 1777893351 | 7.22° C | 87% | 970.4 hPa | 0 mm | - | - | - |
| 1777892486 | 7.22° C | 87% | 970.4 hPa | 0 mm | - | - | - |
| 1777891551 | 6.67° C | 83% | 970.5 hPa | 0 mm | - | - | - |
| 1777890670 | 7.22° C | 84% | 970.4 hPa | 0 mm | - | - | - |
| 1777889747 | 7.22° C | 84% | 970.4 hPa | 0 mm | - | - | - |
* Rain latest hour (hover to see other rain measurements)
** Current wind speed in m/s (hover to see current wind gust speed)